K0TNT-10 Weather Reports


Display with metric or nautical units.
time (UTC)temp
F
wind
direction
speed
MPH
gust
MPH
rain 1hr
in
rain 24hr
in
rain mn
in
humidity
%
barometer
mb
20260505053008 62 124 0.0 1.0 0.00 0.00 0.00 39 1006.5
20260505051540 63 113 0.0 1.0 0.00 0.00 0.00 39 1006.1
20260505041532 66 78 0.0 0.0 0.00 0.00 0.00 37 1004.3
20260505040035 67 105 0.0 0.0 0.00 0.00 0.00 38 1004.4
20260505034545 68 85 0.0 0.0 0.00 0.00 0.00 38 1004.1
20260505033024 68 125 0.0 1.0 0.00 0.00 0.00 38 1003.9
20260505031514 69 95 0.0 0.0 0.00 0.00 0.00 37 1003.3
20260505030052 71 110 0.0 1.0 0.00 0.00 0.00 40 1002.6
20260505024528 72 127 0.0 2.0 0.00 0.00 0.00 40 1001.9
20260505023004 73 97 0.0 0.0 0.00 0.00 0.00 39 1001.6
20260505021546 73 121 0.0 1.0 0.00 0.00 0.00 45 1001.5
20260505020044 72 98 0.0 0.0 0.00 0.00 0.00 51 1001.2
20260505014518 73 93 0.0 0.0 0.00 0.00 0.00 55 1000.6
20260505013055 74 93 0.0 0.0 0.00 0.00 0.00 52 1000.4
20260505011530 75 93 0.0 0.0 0.00 0.00 0.00 50 1000.2
20260505010036 77 93 0.0 0.0 0.00 0.00 0.00 47 1000.0
20260505004512 79 92 0.0 0.0 0.00 0.00 0.00 44 999.9
20260505003045 80 93 0.0 0.0 0.00 0.00 0.00 42 999.9
20260505001520 80 119 0.0 0.0 0.00 0.00 0.00 40 1000.1
20260505000108 81 115 0.0 0.0 0.00 0.00 0.00 40 1000.1
20260504234526 82 289 0.0 0.0 0.00 0.00 0.00 38 1000.1
20260504233005 83 97 0.0 0.0 0.00 0.00 0.00 37 1000.1
20260504231530 83 101 0.0 0.0 0.00 0.00 0.00 37 1000.1
20260504230013 84 117 0.0 0.0 0.00 0.00 0.00 34 1000.1
20260504224553 85 104 0.0 0.0 0.00 0.00 0.00 30 1000.0
20260504223036 84 108 0.0 0.0 0.00 0.00 0.00 30 999.8
20260504221507 84 87 0.0 0.0 0.00 0.00 0.00 29 999.8
20260504220049 85 109 0.0 1.0 0.00 0.00 0.00 29 999.9
20260504214510 87 92 0.0 1.0 0.00 0.00 0.00 30 999.9
20260504213104 86 106 0.0 1.0 0.00 0.00 0.00 26 1000.1
20260504211519 88 112 0.0 0.0 0.00 0.00 0.00 26 1000.2
20260504210018 86 104 0.0 0.0 0.00 0.00 0.00 26 1000.3
20260504204547 85 111 0.0 1.0 0.00 0.00 0.00 29 1000.5
20260504203011 85 341 0.0 0.0 0.00 0.00 0.00 30 1000.7
20260504201543 85 104 0.0 3.0 0.00 0.00 0.00 28 1000.7
20260504200009 85 110 0.0 1.0 0.00 0.00 0.00 28 1000.8
20260504194546 85 82 0.0 2.0 0.00 0.00 0.00 27 1001.1
20260504193024 87 86 0.0 0.0 0.00 0.00 0.00 30 1001.0
20260504191555 87 109 0.0 0.0 0.00 0.00 0.00 30 1001.0
20260504191505 87 109 0.0 0.0 0.00 0.00 0.00 29 1001.0
20260504190042 86 95 0.0 1.0 0.00 0.00 0.00 29 1001.1
20260504184507 87 301 0.0 0.0 0.00 0.00 0.00 28 1001.3
20260504183057 87 120 0.0 0.0 0.00 0.00 0.00 29 1001.3
20260504181516 85 87 0.0 0.0 0.00 0.00 0.00 31 1001.3
20260504180054 84 84 0.0 1.0 0.00 0.00 0.00 33 1001.4
20260504174531 83 104 0.0 1.0 0.00 0.00 0.00 33 1001.5
20260504173059 82 101 0.0 1.0 0.00 0.00 0.00 37 1001.4
20260504173007 82 101 0.0 1.0 0.00 0.00 0.00 38 1001.5
20260504171541 82 101 0.0 0.0 0.00 0.00 0.00 37 1001.6
20260504081529 54 115 0.0 0.0 0.00 0.00 0.00 80 1003.4
20260504060107 60 102 0.0 0.0 0.00 0.00 0.00 67 1005.1